Weather History for Martinsville, VA

Change the Weather History Date:

Monday, January 21, 2013

  Actual Average (KGSO) Record (KGSO)
Temperature  
Mean Temperature 42 °F 39 °F  
Max Temperature 59 °F 48 °F 73 °F (1927)
Min Temperature 24 °F 29 °F -8 °F (1985)
Degree Days  
Heating Degree Days 24 26  
Month to date heating degree days 546  
Since 1 July heating degree days 1960  
Cooling Degree Days 0 0  
Month to date cooling degree days 0  
Year to date cooling degree days 0  
Moisture  
Dew Point 22 °F    
Average Humidity 57    
Maximum Humidity 100    
Minimum Humidity 21    
Precipitation  
Precipitation 0.00 in 0.10 in 1.70 in (1903)
Month to date precipitation 2.11  
Year to date precipitation 2.11  
Snow  
Snow 0.00 in 0.10 in 0.40 in (1983)
Month to date snowfall 2.3  
Since 1 July snowfall 3.2  
Snow Depth -    
Sea Level Pressure  
Sea Level Pressure 30.00 in    
Wind  
Wind Speed 2 mph (West)    
Max Wind Speed 12 mph    
Max Gust Speed 24 mph    
Visibility 10 miles    
Events      
T = Trace of Precipitation, MM = Missing Value Source: NWS Daily Summary

Daily Weather History Graph

Daily Weather History Graph

Search for Another Location

Airport:

Trip Planner

Search our weather history database for the weather conditions in past years. The results will help you decide how hot, cold, wet, or windy it might be!

Date:

Astronomy

Jan. 21, 2013 Rise Set
Actual Time 7:28 AM EST 5:34 PM EST
Civil Twilight 7:01 AM EST 6:02 PM EST
Nautical Twilight 6:29 AM EST 6:33 PM EST
Astronomical Twilight 5:58 AM EST 7:04 PM EST
Moon 1:13 PM EST (1/21) 2:55 AM EST (1/21)
Length of Visible Light 11h 01m
Length of Day
10h 05m
Waxing Gibbous, 75% of the Moon is Illuminated
Jan 21
Waxing Gibbous
Jan 26
Full
Feb 3
Last Quarter
Feb 10
New
Feb 17
First Quarter

Hourly Weather History & Observations

Time (EST) Temp. Windchill Dew Point Humidity Pressure Visibility Wind Dir Wind Speed Gust Speed Precip Events Conditions
12:15 AM 32.0 °F - 30.2 °F 93% 30.08 in 10.0 mi Calm Calm - N/A   Clear
12:35 AM 32.0 °F - 30.2 °F 93% 30.07 in 10.0 mi Calm Calm - N/A   Clear
12:55 AM 30.2 °F - 30.2 °F 100% 30.08 in 10.0 mi Calm Calm - N/A   Clear
1:15 AM 30.2 °F - 28.4 °F 93% 30.08 in 10.0 mi Calm Calm - N/A   Clear
1:35 AM 30.2 °F - 30.2 °F 100% 30.08 in 10.0 mi Calm Calm - N/A   Clear
1:55 AM 28.4 °F - 28.4 °F 100% 30.08 in 10.0 mi Calm Calm - N/A   Clear
2:15 AM 28.4 °F - 28.4 °F 100% 30.09 in 10.0 mi Calm Calm - N/A   Clear
2:35 AM 28.4 °F - 28.4 °F 100% 30.09 in 10.0 mi Calm Calm - N/A   Clear
2:55 AM 28.4 °F - 28.4 °F 100% 30.09 in 10.0 mi Calm Calm - N/A   Clear
3:15 AM 28.4 °F - 28.4 °F 100% 30.08 in 10.0 mi Calm Calm - N/A   Clear
3:35 AM 28.4 °F - 28.4 °F 100% 30.08 in 10.0 mi Calm Calm - N/A   Clear
3:55 AM 26.6 °F - 26.6 °F 100% 30.08 in 10.0 mi Calm Calm - N/A   Clear
4:15 AM 28.4 °F - 28.4 °F 100% 30.07 in 10.0 mi Calm Calm - N/A   Clear
4:35 AM 26.6 °F - 26.6 °F 100% 30.07 in 10.0 mi Calm Calm - N/A   Clear
4:55 AM 26.6 °F - 26.6 °F 100% 30.07 in 10.0 mi Calm Calm - N/A   Clear
5:15 AM 26.6 °F - 26.6 °F 100% 30.07 in 10.0 mi Calm Calm - N/A   Clear
5:55 AM 26.6 °F - 26.6 °F 100% 30.07 in 10.0 mi Calm Calm - N/A   Clear
6:15 AM 26.6 °F - 26.6 °F 100% 30.06 in 10.0 mi Calm Calm - N/A   Clear
6:35 AM 26.6 °F - 26.6 °F 100% 30.06 in 10.0 mi Calm Calm - N/A   Clear
6:55 AM 26.6 °F - 26.6 °F 100% 30.06 in 10.0 mi Calm Calm - N/A   Clear
7:15 AM 24.8 °F - 24.8 °F 100% 30.06 in 10.0 mi Calm Calm - N/A   Clear
7:35 AM 24.8 °F - 24.8 °F 100% 30.06 in 10.0 mi Calm Calm - N/A   Clear
7:55 AM 26.6 °F - 26.6 °F 100% 30.06 in 10.0 mi Calm Calm - N/A   Clear
8:15 AM 26.6 °F - 26.6 °F 100% 30.06 in 10.0 mi Calm Calm - N/A   Clear
8:35 AM 28.4 °F - 28.4 °F 100% 30.07 in 10.0 mi Calm Calm - N/A   Clear
8:55 AM 30.2 °F - 30.2 °F 100% 30.07 in 10.0 mi Calm Calm - N/A   Clear
9:15 AM 33.8 °F - 30.2 °F 87% 30.07 in 10.0 mi Calm Calm - N/A   Clear
9:35 AM 35.6 °F - 30.2 °F 81% 30.07 in 10.0 mi Calm Calm - N/A   Clear
9:55 AM 39.2 °F - 32.0 °F 75% 30.07 in 10.0 mi Calm Calm - N/A   Clear
10:15 AM 44.6 °F - 28.4 °F 53% 30.07 in 10.0 mi Calm Calm - N/A   Clear
10:35 AM 46.4 °F - 28.4 °F 50% 30.07 in 10.0 mi Calm Calm - N/A   Clear
10:55 AM 48.2 °F - 26.6 °F 43% 30.06 in 10.0 mi Calm Calm - N/A   Clear
11:15 AM 50.0 °F - 26.6 °F 40% 30.05 in 10.0 mi South 4.6 mph - N/A   Clear
11:35 AM 51.8 °F - 28.4 °F 41% 30.03 in 10.0 mi Calm Calm - N/A   Clear
11:55 AM 53.6 °F - 28.4 °F 38% 30.01 in 10.0 mi Calm Calm - N/A   Clear
12:15 PM 53.6 °F - 26.6 °F 35% 29.99 in 10.0 mi SW 9.2 mph - N/A   Clear
12:35 PM 55.4 °F - 26.6 °F 33% 29.97 in 10.0 mi South 8.1 mph - N/A   Clear
12:55 PM 55.4 °F - 26.6 °F 33% 29.95 in 10.0 mi SSW 4.6 mph - N/A   Clear
1:15 PM 57.2 °F - 26.6 °F 31% 29.93 in 10.0 mi WSW 5.8 mph - N/A   Clear
1:35 PM 57.2 °F - 24.8 °F 29% 29.92 in 10.0 mi South 5.8 mph - N/A   Clear
1:55 PM 57.2 °F - 23.0 °F 27% 29.91 in 10.0 mi WSW 5.8 mph 20.7 mph N/A   Clear
2:15 PM 57.2 °F - 24.8 °F 29% 29.90 in 10.0 mi SW 8.1 mph 16.1 mph N/A   Clear
2:35 PM 59.0 °F - 24.8 °F 27% 29.89 in 10.0 mi SW 6.9 mph - N/A   Clear
2:55 PM 59.0 °F - 21.2 °F 23% 29.89 in 10.0 mi West 11.5 mph 19.6 mph N/A   Clear
3:15 PM 57.2 °F - 19.4 °F 23% 29.89 in 10.0 mi WSW 10.4 mph 18.4 mph N/A   Clear
3:35 PM 57.2 °F - 17.6 °F 21% 29.88 in 10.0 mi West 11.5 mph 20.7 mph N/A   Clear
3:55 PM 55.4 °F - 17.6 °F 23% 29.88 in 10.0 mi WSW 10.4 mph 21.9 mph N/A   Clear
4:15 PM 55.4 °F - 17.6 °F 23% 29.89 in 10.0 mi West 9.2 mph - N/A   Clear
4:35 PM 55.4 °F - 17.6 °F 23% 29.89 in 10.0 mi West 9.2 mph 20.7 mph N/A   Clear
4:55 PM 53.6 °F - 15.8 °F 22% 29.89 in 10.0 mi West 8.1 mph 19.6 mph N/A   Clear
5:15 PM 51.8 °F - 15.8 °F 24% 29.90 in 10.0 mi WNW 11.5 mph 19.6 mph N/A   Clear
5:35 PM 50.0 °F - 15.8 °F 26% 29.91 in 10.0 mi West 6.9 mph 20.7 mph N/A   Clear
5:55 PM 48.2 °F - 17.6 °F 30% 29.92 in 10.0 mi West 5.8 mph - N/A   Clear
6:15 PM 48.2 °F - 15.8 °F 27% 29.92 in 10.0 mi WNW 6.9 mph - N/A   Clear
6:35 PM 46.4 °F 41.5 °F 12.2 °F 25% 29.93 in 10.0 mi WNW 10.4 mph 17.3 mph N/A   Clear
6:55 PM 46.4 °F 42.9 °F 10.4 °F 23% 29.94 in 10.0 mi West 6.9 mph 16.1 mph N/A   Clear
7:15 PM 44.6 °F 43.1 °F 10.4 °F 25% 29.94 in 10.0 mi West 3.5 mph - N/A   Clear
7:35 PM 42.8 °F 40.1 °F 12.2 °F 29% 29.95 in 10.0 mi West 4.6 mph - N/A   Clear
7:55 PM 44.6 °F 41.4 °F 10.4 °F 25% 29.95 in 10.0 mi West 5.8 mph 16.1 mph N/A   Clear
8:15 PM 44.6 °F 40.7 °F 8.6 °F 23% 29.95 in 10.0 mi West 6.9 mph 18.4 mph N/A   Clear
8:35 PM 42.8 °F 37.5 °F 8.6 °F 25% 29.96 in 10.0 mi West 9.2 mph - N/A   Clear
8:55 PM 42.8 °F 38.0 °F 10.4 °F 27% 29.95 in 10.0 mi WNW 8.1 mph 20.7 mph N/A   Clear
9:15 PM 42.8 °F 38.6 °F 10.4 °F 27% 29.95 in 10.0 mi WNW 6.9 mph - N/A   Clear
9:35 PM 41.0 °F 37.1 °F 10.4 °F 29% 29.96 in 10.0 mi WNW 5.8 mph - N/A   Clear
9:55 PM 41.0 °F 36.4 °F 10.4 °F 29% 29.96 in 10.0 mi WNW 6.9 mph - N/A   Clear
10:15 PM 39.2 °F 33.0 °F 10.4 °F 31% 29.96 in 10.0 mi WNW 9.2 mph 16.1 mph N/A   Clear
10:35 PM 39.2 °F 32.5 °F 8.6 °F 28% 29.97 in 10.0 mi WNW 10.4 mph 18.4 mph N/A   Clear
10:55 PM 39.2 °F 34.2 °F 8.6 °F 28% 29.97 in 10.0 mi WNW 6.9 mph - N/A   Clear
11:15 PM 39.2 °F 32.0 °F 6.8 °F 26% 29.97 in 10.0 mi WNW 11.5 mph 24.2 mph N/A   Clear
11:35 PM 39.2 °F 33.6 °F 6.8 °F 26% 29.98 in 10.0 mi West 8.1 mph 23.0 mph N/A   Clear
11:55 PM 37.4 °F 30.3 °F 8.6 °F 30% 29.99 in 10.0 mi WNW 10.4 mph - N/A   Clear